[[{"header":{"parameterUnit":"m.s-1","parameterCategory":1,"la1":30.2992,"la2":30.254,"lo1":-89.0895,"lo2":-89.0443,"dy":0.0025,"dx":0.0025,"nx":19,"ny":19,"refTime":"2026-04-05T09:00:00:Z","depth":0,"parameterNumber":2,"parameterNumberName":"U-component_of_WINDS"},"data":[0,0,0,-3.9097,-3.9101,-3.9277,-3.9278,-3.9553,-3.9556,0,0,0,0,0,0,0,0,0,0,0,-3.9074,-3.9077,-3.9096,-3.9102,-3.9277,-3.9278,-3.9553,-3.9556,0,0,0,0,0,0,0,0,0,0,0,-3.9073,-3.9076,-3.908,-3.9102,-3.9277,-3.9278,-3.9552,-3.9402,0,0,0,0,0,0,0,0,0,0,-3.9222,-3.923,-3.9076,-3.908,-3.9104,-3.9277,-3.9278,-3.9394,-3.9411,-3.9495,0,-3.9576,0,-3.9571,-3.9578,-3.9579,0,0,0,-3.908,-3.9216,-3.9236,-3.9081,-3.9106,-3.9277,-3.9192,-3.9403,-3.9423,-3.9519,-3.958,-3.9589,-3.9575,-3.958,-3.9581,-4.0137,-4.0141,0,0,-3.907,-3.9122,-3.9223,-3.9251,-3.9225,-3.9186,-3.9198,-3.9414,-3.9485,-3.9581,-3.9594,-3.958,-3.9582,-3.9584,-4.0134,-4.0138,0,0,0,-3.9057,-3.9117,-3.913,-3.9241,-3.9268,-3.9192,-3.9205,-3.9475,-3.9475,-3.9597,-3.9583,-3.9584,-3.9588,-4.013,-4.0135,-4.0369,0,0,0,-3.905,-3.9109,-3.9127,-3.9161,-3.9265,-3.9374,-3.9262,-3.946,-3.9483,-3.9582,-3.9584,-3.9591,-4.0125,-4.0133,-4.0354,-4.0473,0,0,0,-3.9053,-3.9108,-3.9144,-3.9164,-3.9241,-3.9369,-3.9381,-3.9464,-3.9476,-3.9579,-3.9592,-4.0123,-4.0131,-4.034,-4.0451,-4.064,0,0,0,-3.9071,-3.9347,-3.9149,-3.9451,-3.924,-3.951,-3.9379,-3.9577,-3.9693,-3.9585,-4.0126,-4.0135,-4.0336,-4.0437,-4.0626,-4.0813,-4.0894,0,0,-3.9449,-3.9395,-3.9568,-3.9396,-3.9716,-3.9479,-3.9833,-3.9889,-3.985,-4.0044,-4.0057,-4.0359,-4.0449,-4.0637,-4.1317,-4.1382,0,0,0,-3.9706,-3.9833,-3.9906,-4.0019,-4.0067,-4.0121,-4.0116,-4.0137,-4.0299,-3.996,-4.0472,-4.0524,-4.0632,-4.072,-4.0776,-4.0868,-4.0175,-4.0174,-4.0173,-4.0322,-4.0256,-4.0541,-4.0499,-4.0609,-4.0602,-4.0687,-4.0714,-4.0614,-4.0737,-4.0797,-4.1218,-4.1322,-4.1363,-4.146,-4.0884,-4.0885,-4.0885,-4.0886,-4.0875,-4.1048,-4.0908,-4.1136,-4.1066,-4.1257,-4.126,-4.1184,-4.1353,-4.1166,-4.1258,-4.1068,-4.1436,-4.1518,-4.0903,-4.09,-4.0898,-4.0896,-4.0895,-4.1278,-4.1349,-4.1368,-4.1525,-4.1653,-4.1597,-4.1767,-4.1694,-4.1628,-4.1718,-4.1778,-4.1774,-4.1767,-4.175,-4.1751,-4.1753,-4.1754,-4.1755,-4.1756,-4.1692,-4.1705,-4.1856,-4.1931,-4.1994,-4.2069,-4.2062,-4.2124,-4.2174,-4.2108,-4.2108,-4.2003,-4.1481,-4.1357,-4.1779,-4.1775,-4.1772,-4.177,-4.1768,-4.2292,-4.2144,-4.2379,-4.2443,-4.2525,-4.266,-4.2562,-4.2694,-4.2733,-4.282,-4.2692,-4.2315,-4.2256,-4.2211,-4.2109,-4.27,-4.27,-4.27,-4.27,-4.2638,-4.2598,-4.2823,-4.2931,-4.3027,-4.2963,-4.3235,-4.3232,-4.3207,-4.3228,-4.3129,-4.2983,-4.2941,-4.2907,-4.2847,-4.2751,-4.3492,-4.3493,-4.3494,-4.3007,-4.2972,-4.3218,-4.3189,-4.3247,-4.33,-4.3555,-4.3686,-4.3625,-4.3525,-4.3245,-4.3211,-4.2974,-4.2899,-4.2802,-4.2711,-4.2532,0,0]},{"header":{"parameterUnit":"m.s-1","parameterCategory":1,"la1":30.2992,"la2":30.254,"lo1":-89.0895,"lo2":-89.0443,"dy":0.0025,"dx":0.0025,"nx":19,"ny":19,"refTime":"2026-04-05T09:00:00:Z","depth":0,"parameterNumber":3,"parameterNumberName":"V-component_of_WINDS"},"data":[0,0,0,-3.3849,-3.3851,-3.3902,-3.3902,-3.3967,-3.3967,0,0,0,0,0,0,0,0,0,0,0,-3.3836,-3.3836,-3.3849,-3.3851,-3.3902,-3.3902,-3.3966,-3.3967,0,0,0,0,0,0,0,0,0,0,0,-3.3835,-3.3836,-3.3837,-3.3851,-3.3902,-3.3902,-3.3966,-3.3928,0,0,0,0,0,0,0,0,0,0,-3.3878,-3.3867,-3.3836,-3.3837,-3.3851,-3.3902,-3.3902,-3.3926,-3.393,-3.3943,0,-3.3957,0,-3.3963,-3.3972,-3.3972,0,0,0,-3.3849,-3.3863,-3.3876,-3.3837,-3.3852,-3.3902,-3.3879,-3.3928,-3.3933,-3.3949,-3.3958,-3.396,-3.3964,-3.3972,-3.3972,-3.4054,-3.4054,0,0,-3.3847,-3.3845,-3.3873,-3.3879,-3.3873,-3.3877,-3.388,-3.3931,-3.394,-3.3958,-3.3962,-3.3965,-3.3972,-3.3973,-3.4053,-3.4054,0,0,0,-3.3839,-3.3844,-3.3855,-3.3876,-3.3886,-3.3878,-3.3882,-3.3938,-3.3942,-3.3963,-3.3966,-3.3973,-3.3974,-3.4053,-3.4054,-3.4073,0,0,0,-3.3837,-3.3839,-3.3854,-3.3853,-3.3885,-3.3913,-3.3888,-3.3938,-3.3944,-3.3966,-3.3973,-3.3974,-3.4053,-3.4053,-3.4071,-3.4082,0,0,0,-3.3832,-3.3839,-3.3847,-3.3853,-3.3875,-3.3912,-3.3919,-3.394,-3.3946,-3.3972,-3.3974,-3.4052,-3.4053,-3.407,-3.4079,-3.41,0,0,0,-3.3825,-3.3865,-3.3847,-3.3892,-3.3875,-3.3925,-3.3919,-3.3956,-3.398,-3.3973,-3.4053,-3.4054,-3.4069,-3.4078,-3.4099,-3.4117,-3.4125,0,0,-3.3874,-3.3871,-3.3897,-3.3882,-3.3934,-3.3917,-3.3971,-3.3995,-3.3998,-3.4034,-3.4037,-3.4072,-3.4079,-3.41,-3.4172,-3.4178,0,0,0,-3.3912,-3.393,-3.3944,-3.3967,-3.3986,-3.4001,-3.4016,-3.4024,-3.4055,-3.4017,-3.4086,-3.4091,-3.4103,-3.4111,-3.4116,-3.4125,-3.4058,-3.4058,-3.4058,-3.398,-3.3981,-3.4023,-3.4029,-3.4051,-3.4064,-3.4081,-3.4093,-3.409,-3.4106,-3.4116,-3.416,-3.417,-3.4174,-3.4183,-3.4127,-3.4127,-3.4128,-3.4128,-3.405,-3.4075,-3.4066,-3.4104,-3.4103,-3.4135,-3.4147,-3.4143,-3.417,-3.4153,-3.4164,-3.4144,-3.4181,-3.4189,-3.4129,-3.4129,-3.4129,-3.4128,-3.4128,-3.4093,-3.4105,-3.4113,-3.4142,-3.4165,-3.4169,-3.4195,-3.4194,-3.4194,-3.4205,-3.4214,-3.4213,-3.4211,-3.4209,-3.421,-3.421,-3.421,-3.421,-3.421,-3.4134,-3.4142,-3.4164,-3.4184,-3.4196,-3.4211,-3.4222,-3.4234,-3.4246,-3.4243,-3.4243,-3.4236,-3.4185,-3.4171,-3.4212,-3.4212,-3.4212,-3.4211,-3.4211,-3.4201,-3.4185,-3.4219,-3.423,-3.4251,-3.4271,-3.4269,-3.4291,-3.4301,-3.4312,-3.4302,-3.4265,-3.4261,-3.4257,-3.4245,-3.4304,-3.4304,-3.4304,-3.4304,-3.4236,-3.4234,-3.4265,-3.4283,-3.4301,-3.4302,-3.4336,-3.4344,-3.4349,-3.4354,-3.4345,-3.433,-3.4326,-3.4324,-3.4319,-3.4307,-3.438,-3.438,-3.4381,-3.4276,-3.4274,-3.4305,-3.4309,-3.4324,-3.4336,-3.4367,-3.4386,-3.4389,-3.4384,-3.4357,-3.4354,-3.4329,-3.4321,-3.4315,-3.4306,-3.4286,0,0]}]]